Regional Weather Roundup
Issued by NWS

Home | Current Version | Previous Version | Text Only | Print | Product List | Glossary On
Versions: 1 2 3 4 5 6 7 8 9 10 11 12 13 14 15 16 17 18 19 20 21 22 23 24 25 26 27 28
000
ASUS44 KBMX 171310
RWRAL

ALABAMA REGIONAL WEATHER ROUNDUP
NATIONAL WEATHER SERVICE BIRMINGHAM AL
800 AM CDT TUE OCT 17 2017

NOTE: "FAIR" INDICATES FEW OR NO CLOUDS BELOW 12,000 FEET
WITH NO SIGNIFICANT WEATHER AND/OR OBSTRUCTIONS TO VISIBILITY.

THE REMARK "TC" DENOTES TEMPERATURE IN DEGREES CELSIUS.

ALZ001>011-014-016>018-020-171400-
NORTH ALABAMA

CITY           SKY/WX    TMP DP  RH WIND       PRES   REMARKS
MUSCLE SHOALS  SUNNY     47  43  86 CALM      30.35R
HUNTSVILLE     SUNNY     50  47  89 CALM      30.33R
DECATUR        SUNNY     47  44  90 CALM      30.35R
HALEYVILLE     FAIR      49  44  83 CALM      30.34R
GADSDEN        SUNNY     47  47 100 N3        30.34R
$$

ALZ012-013-022-023-030>036-040>044-171400-
WEST CENTRAL ALABAMA

CITY           SKY/WX    TMP DP  RH WIND       PRES   REMARKS
TUSCALOOSA     SUNNY     52  49  89 N3        30.31R
DEMOPOLIS        N/A     50  46  86 N5        30.26R
$$

ALZ015-024>026-033>036-041>044-171400-
CENTRAL ALABAMA

CITY           SKY/WX    TMP DP  RH WIND       PRES   REMARKS
BIRMINGHAM     SUNNY     53  43  68 E6        30.33R
MONTGOMERY     SUNNY     57  45  64 NE8       30.26R
SHELBY CO ARPT SUNNY     52  46  80 VRB3      30.30R
MAXWELL AFB    SUNNY     56  46  67 NE9       30.26R
GREENVILLE     NOT AVBL
SELMA          FAIR      54  46  76 NE6       30.26R
PRATTVILLE     FAIR      56  44  64 NE8       30.26R
BESSEMER       FAIR      52  43  71 NE6       30.31R
TALLADEGA      FAIR      48  45  89 CALM      30.33R
PELL CITY      SUNNY     50  48  93 N5        30.33R
MARION         NOT AVBL
SYLACAUGA      FAIR      52  45  78 CALM      30.30R
$$

ALZ019-021-028-029-037-038-045>048-171400-
EAST CENTRAL ALABAMA

CITY           SKY/WX    TMP DP  RH WIND       PRES   REMARKS
ANNISTON       SUNNY     49  44  83 NE6       30.32R
ALEXANDER CITY SUNNY     52  42  69 NE7       30.29R
AUBURN         SUNNY     52  43  71 NE13G18   30.29R
$$

ALZ051>064-171400-
SOUTHWEST ALABAMA

CITY           SKY/WX    TMP DP  RH WIND       PRES   REMARKS
MOBILE         MOSUNNY   56  50  80 NE12      30.19R
BROOKLEY FIELD SUNNY     59  53  80 N12       30.19R
EVERGREEN      SUNNY     55  49  80 NE6       30.22R
$$

ALZ049-050-065>069-171400-
SOUTHEAST ALABAMA

CITY           SKY/WX    TMP DP  RH WIND       PRES   REMARKS
DOTHAN         SUNNY     59  47  64 E12G18    30.25R
OZARK          SUNNY     57  47  68 NE13      30.21R
TROY           SUNNY     55  48  77 NE9       30.24R
EUFAULA        FAIR      58  47  66 VRB6      30.25R
$$




USA.gov is the U.S. government's official web portal to all federal, state and local government web resources and services.